TV
NORAD ID: 26107
Int'l Code: 2000-016A
Perigee: 35,774.2 km
Apogee: 35,812.8 km
Inclination: 0.0 °
Period: 1,436.1 minutes
Semi major axis: 42164 km
Launch date: March 21, 2000
Source: United States (US)
Comments: Africa, Middle East, Asia, Latin America and Caribbean. Services to underserved emerging markets; low-cost portable receivers.
Two Line Element Set (TLE):
1 26107U 00016A 13142.85706655 -.00000330 00000-0 10000-3 0 4071
2 26107 000.0355 011.3449 0004569 045.5423 237.3203 01.00272691 48280
Source: AFSPC
NASA's NSSDC Master Catalog entry for ASIASTAR